Regional Weather Roundup
Issued by NWS Jackson, KY

Home | Current Version | Previous Version | Graphics & Text | Print | Product List | Glossary On
Versions: 1 2 3 4 5 6 7 8 9 10 11 12 13 14 15 16 17 18 19 20 21 22 23 24 25 26 27 28 29 30 31 32 33 34 35 36 37 38 39 40 41 42 43 44 45 46 47 48 49 50
000
ASUS43 KJKL 171911
RWRJKL

EAST KENTUCKY HOURLY WEATHER ROUNDUP
NATIONAL WEATHER SERVICE JACKSON KY
300 PM EDT WED SEP 17 2014

NOTE: "FAIR" INDICATES FEW OR NO CLOUDS BELOW 12,000 FEET WITH
NO SIGNIFICANT WEATHER AND/OR OBSTRUCTIONS TO VISIBILITY.

* THESE REPORTS ARE NOT UNDER NWS QUALITY CONTROL AND MAY NOT
  REPORT WEATHER SUCH AS PRECIPITATION AND FOG.

KYZ079-080-083-085-087-088-110-112-115-119-120-172000
...EASTERN KENTUCKY...

CITY           SKY/WX    TMP DP  RH WIND       PRES   REMARKS
JACKSON        PTSUNNY   67  53  61 NW5       30.01S
LONDON         SUNNY     70  52  52 VRB5      30.00F
MONTICELLO*    SUNNY     72  52  49 VRB7      30.02F
WILLIAMSBURG*  SUNNY     70  55  60 CALM      29.99F
MIDDLESBORO*   MOSUNNY   74  57  56 CALM      29.98F
HARLAN APT*    MOCLDY    75  50  41 MISG      29.97F
HAZARD APT*    MOCLDY    68  54  60 W3        29.99F
BLACK MTN*       N/A     61  55  82 CALM        N/A
BIG SANDY*     CLOUDY    66  56  68 CALM      30.01F
MOREHEAD APT*  CLOUDY    68  52  56 N5        30.03F
$$

KYZ035-036-041-042-044-050-067-078-099-172000
...CENTRAL KENTUCKY...

CITY           SKY/WX    TMP DP  RH WIND       PRES   REMARKS
MT STERLING*   MOSUNNY   70  52  52 CALM      30.01F
FLEMING/MASON* CLOUDY    68  52  56 N5        30.02F
DANVILLE*      SUNNY     68  50  52 CALM      30.02S
RICHMOND*      SUNNY     72  52  49 CALM      30.00S
LEXINGTON      MOSUNNY   72  53  51 N7        30.01F
FRANKFORT      MOSUNNY   67  50  54 VRB3      30.01S
$$

KYZ091>093-OHZ055-061-077-WVZ005-015-034-035-042-172000
...SOUTHERN OHIO/WEST VIRGINIA...

CITY           SKY/WX    TMP DP  RH WIND       PRES   REMARKS
COVINGTON      PTSUNNY   65  48  54 CALM      30.02F
COLUMBUS       MOSUNNY   68  46  45 SW7       30.01F
DAYTON         PTSUNNY   63  48  58 NE3       30.04F
WILMINGTON     CLOUDY    63  46  54 CALM      30.02F
HUNTINGTON     PTSUNNY   67  55  65 S3        30.00S
CHARLESTON     MOSUNNY   70  57  63 VRB5      29.99F
PINEVILLE*     MOSUNNY   74  62  66 MISG      30.03F
BECKLEY        MOSUNNY   69  53  56 S7        30.01F
BLUEFIELD      MOSUNNY   68  53  58 VRB5      30.03F
$$

VAZ002-007-008-TNZ017-027-036-066-071-172000
...SOUTHWEST VIRGINIA/EAST TENNESSEE...

CITY           SKY/WX    TMP DP  RH WIND       PRES   REMARKS
WISE*          CLOUDY    68  52  56 NW5       30.03F
JONESVILLE*    CLEAR     73  52  46 CALM      29.99F
ABINGDON*      PTSUNNY   73  59  63 CALM      29.99S
BRISTOL        MOSUNNY   76  57  51 NW7       29.97S
KNOXVILLE      MOSUNNY   75  56  51 CALM      29.96F
OAK RIDGE      SUNNY     76  55  48 VRB5      29.98F
CROSSVILLE     MOSUNNY   70  49  47 MISG      30.01F
NASHVILLE      PTSUNNY   74  55  51 NW6       30.01F
$$

...KEY TO REMARKS...
VSB - VISIBILITY IN MILES
WCI - WIND CHILL INDEX
HX  - HEAT INDEX

$$


USA.gov is the U.S. government's official web portal to all federal, state and local government web resources and services.